• In Uzbekistan
  • List of Countries
  • For 7 days
  • Water Temperature
  • Weather Map
  • Weather Widgets
  • user-avatar
    Login

    Hourly Weather Balta

    Today, 20 February, Thursday

    Time Temperature Precipitation Wind Pressure Humidity
    00:00 +5°C° 0 mm 1 mps 746 mmHg 65%
    01:00 +4°C° 0 mm 1 mps 746 mmHg 66%
    02:00 +4°C° 0 mm 1 mps 746 mmHg 67%
    03:00 +4°C° 0 mm 1 mps 746 mmHg 69%
    04:00 +4°C° 0 mm 1 mps 746 mmHg 70%
    05:00 +3°C° 0 mm 1 mps 746 mmHg 72%
    06:00 +3°C° 0 mm 1 mps 746 mmHg 73%
    07:00 +3°C° 0 mm 1 mps 746 mmHg 73%
    08:00 +3°C° 0 mm 1 mps 746 mmHg 74%
    09:00 +5°C° 0 mm 1 mps 746 mmHg 69%
    10:00 +6°C° 0 mm 1 mps 747 mmHg 65%
    11:00 +7°C° 0 mm 1 mps 747 mmHg 61%
    12:00 +7°C° 0 mm 1 mps 747 mmHg 58%
    13:00 +8°C° 0 mm 1 mps 747 mmHg 56%
    14:00 +8°C° 0 mm 1 mps 746 mmHg 53%
    15:00 +8°C° 0 mm 1 mps 747 mmHg 55%
    16:00 +8°C° 0 mm 1 mps 747 mmHg 57%
    17:00 +8°C° 0 mm 1 mps 747 mmHg 60%
    18:00 +6°C° 0 mm 2 mps 747 mmHg 63%
    19:00 +5°C° 0 mm 2 mps 748 mmHg 67%
    20:00 +4°C° 0 mm 2 mps 748 mmHg 71%
    21:00 +4°C° 0 mm 2 mps 748 mmHg 77%
    22:00 +3°C° 0 mm 2 mps 748 mmHg 82%
    23:00 +2°C° 0 mm 2 mps 748 mmHg 88%

    Tomorrow, 21 February, Friday

    Time Temperature Precipitation Wind Pressure Humidity
    00:00 +3°C° 0 mm 1 mps 749 mmHg 90%
    01:00 +3°C° 0 mm 1 mps 749 mmHg 91%
    02:00 +2°C° 0 mm 1 mps 749 mmHg 93%
    03:00 +2°C° 0 mm 1 mps 749 mmHg 93%
    04:00 +2°C° 0 mm 1 mps 749 mmHg 93%
    05:00 +1°C° 0 mm 1 mps 749 mmHg 93%
    06:00 +1°C° 0 mm 1 mps 749 mmHg 91%
    07:00 +2°C° 0 mm 1 mps 749 mmHg 90%
    08:00 +2°C° 0 mm 1 mps 749 mmHg 89%
    15:00 +7°C° 0 mm 1 mps 748 mmHg 57%
    16:00 +7°C° 0 mm 1 mps 747 mmHg 58%
    17:00 +7°C° 0 mm 1 mps 747 mmHg 59%
    18:00 +6°C° 0 mm 1 mps 748 mmHg 61%
    19:00 +6°C° 0 mm 1 mps 748 mmHg 63%
    20:00 +5°C° 0 mm 1 mps 748 mmHg 65%
    21:00 +5°C° 0 mm 1 mps 748 mmHg 66%
    22:00 +5°C° 0 mm 1 mps 748 mmHg 66%
    23:00 +5°C° 0 mm 1 mps 749 mmHg 67%

    Day after tomorrow, 22 February, Saturday

    Time Temperature Precipitation Wind Pressure Humidity
    00:00 +4°C° 0 mm 1 mps 749 mmHg 68%
    01:00 +4°C° 0 mm 1 mps 749 mmHg 70%
    02:00 +3°C° 0 mm 1 mps 749 mmHg 72%
    03:00 +3°C° 0 mm 1 mps 750 mmHg 77%
    04:00 +3°C° 0 mm 1 mps 750 mmHg 81%
    05:00 +3°C° 0 mm 1 mps 750 mmHg 86%
    06:00 +2°C° 0 mm 2 mps 750 mmHg 88%
    07:00 +2°C° 0 mm 2 mps 751 mmHg 90%
    08:00 +2°C° 0 mm 2 mps 751 mmHg 91%
    09:00 +2°C° 0 mm 3 mps 751 mmHg 85%
    10:00 +2°C° 0 mm 3 mps 752 mmHg 79%
    11:00 +3°C° 0 mm 3 mps 752 mmHg 73%
    12:00 +4°C° 0 mm 3 mps 752 mmHg 69%
    13:00 +4°C° 0 mm 3 mps 752 mmHg 65%
    14:00 +4°C° 0 mm 3 mps 752 mmHg 62%
    15:00 +4°C° 0 mm 3 mps 751 mmHg 62%
    16:00 +5°C° 0 mm 2 mps 751 mmHg 62%
    17:00 +5°C° 0 mm 2 mps 751 mmHg 63%
    18:00 +4°C° 0 mm 2 mps 751 mmHg 66%
    19:00 +5°C° 0 mm 1 mps 751 mmHg 69%
    20:00 +4°C° 0 mm 1 mps 751 mmHg 73%
    21:00 +2°C° 0 mm 2 mps 751 mmHg 74%
    22:00 +2°C° 0 mm 2 mps 751 mmHg 76%
    23:00 +2°C° 0 mm 2 mps 750 mmHg 78%

    23 February, Sunday

    Time Temperature Precipitation Wind Pressure Humidity
    00:00 +2°C° 0 mm 2 mps 750 mmHg 79%
    01:00 0°C° 0 mm 3 mps 750 mmHg 79%
    02:00 0°C° 0 mm 3 mps 749 mmHg 80%
    03:00 -1°C° 0 mm 4 mps 748 mmHg 78%
    04:00 -1°C° 0 mm 5 mps 748 mmHg 75%
    05:00 0°C° 0 mm 5 mps 747 mmHg 73%
    06:00 0°C° 0 mm 5 mps 747 mmHg 71%
    07:00 0°C° 0 mm 5 mps 746 mmHg 68%
    08:00 0°C° 0 mm 5 mps 746 mmHg 66%
    09:00 +1°C° 0 mm 5 mps 745 mmHg 65%
    10:00 +1°C° 0 mm 5 mps 745 mmHg 63%
    11:00 +2°C° 0 mm 5 mps 745 mmHg 62%
    12:00 +3°C° 0 mm 6 mps 744 mmHg 61%
    13:00 +4°C° 0 mm 6 mps 744 mmHg 60%
    14:00 +5°C° 0 mm 6 mps 743 mmHg 59%
    15:00 +7°C° 0 mm 5 mps 743 mmHg 60%
    16:00 +7°C° 0 mm 5 mps 742 mmHg 61%
    17:00 +7°C° 0 mm 4 mps 742 mmHg 63%
    18:00 +6°C° 0 mm 4 mps 742 mmHg 67%
    19:00 +6°C° 0 mm 4 mps 742 mmHg 72%
    20:00 +6°C° 0 mm 4 mps 742 mmHg 76%
    21:00 +5°C° 0 mm 4 mps 742 mmHg 79%
    22:00 +5°C° 0 mm 4 mps 741 mmHg 81%
    23:00 +4°C° 0 mm 3 mps 741 mmHg 84%

    24 February, Monday

    Time Temperature Precipitation Wind Pressure Humidity
    00:00 +4°C° 0.1 mm 3 mps 740 mmHg 85%
    01:00 +5°C° 0.1 mm 2 mps 739 mmHg 87%
    02:00 +5°C° 0.1 mm 2 mps 739 mmHg 88%
    03:00 +4°C° 0.5 mm 3 mps 737 mmHg 89%
    04:00 +4°C° 0.5 mm 4 mps 736 mmHg 90%
    05:00 +3°C° 0.5 mm 5 mps 734 mmHg 91%
    06:00 +3°C° 1 mm 5 mps 733 mmHg 90%
    07:00 +5°C° 1 mm 5 mps 732 mmHg 89%
    08:00 +4°C° 1 mm 6 mps 730 mmHg 87%
    09:00 +2°C° 0.9 mm 9 mps 731 mmHg 89%
    10:00 -1°C° 0.9 mm 12 mps 731 mmHg 91%
    11:00 -3°C° 0.9 mm 15 mps 732 mmHg 93%
    12:00 -1°C° 0.3 mm 14 mps 733 mmHg 87%
    13:00 -1°C° 0.3 mm 13 mps 734 mmHg 81%
    14:00 -1°C° 0.3 mm 12 mps 736 mmHg 75%
    15:00 -1°C° 0 mm 11 mps 737 mmHg 72%
    16:00 0°C° 0 mm 10 mps 738 mmHg 70%
    17:00 0°C° 0 mm 9 mps 739 mmHg 68%
    18:00 0°C° 0 mm 9 mps 740 mmHg 74%
    19:00 0°C° 0 mm 9 mps 740 mmHg 80%
    20:00 -1°C° 0 mm 8 mps 741 mmHg 87%
    21:00 -1°C° 0.1 mm 8 mps 742 mmHg 84%
    22:00 -1°C° 0.1 mm 8 mps 742 mmHg 82%
    23:00 -1°C° 0.1 mm 8 mps 743 mmHg 80%

    25 February, Tuesday

    Time Temperature Precipitation Wind Pressure Humidity
    00:00 -1°C° 0 mm 8 mps 743 mmHg 78%
    01:00 -1°C° 0 mm 7 mps 744 mmHg 77%
    02:00 -2°C° 0 mm 7 mps 744 mmHg 75%
    03:00 -2°C° 0 mm 7 mps 745 mmHg 77%
    04:00 -2°C° 0 mm 6 mps 745 mmHg 79%
    05:00 -2°C° 0 mm 5 mps 745 mmHg 82%
    06:00 -2°C° 0 mm 5 mps 746 mmHg 81%
    07:00 -2°C° 0 mm 5 mps 746 mmHg 81%
    08:00 -2°C° 0 mm 5 mps 746 mmHg 81%
    09:00 -1°C° 0 mm 4 mps 746 mmHg 75%
    10:00 0°C° 0 mm 4 mps 747 mmHg 69%
    11:00 +3°C° 0 mm 4 mps 747 mmHg 63%
    12:00 +3°C° 0 mm 4 mps 746 mmHg 57%
    13:00 +4°C° 0 mm 4 mps 746 mmHg 52%
    14:00 +5°C° 0 mm 4 mps 746 mmHg 46%
    15:00 +5°C° 0 mm 3 mps 745 mmHg 48%
    16:00 +4°C° 0 mm 3 mps 745 mmHg 49%
    17:00 +5°C° 0 mm 2 mps 744 mmHg 50%
    18:00 +5°C° 0 mm 2 mps 744 mmHg 52%
    19:00 +5°C° 0 mm 2 mps 744 mmHg 54%
    20:00 +3°C° 0 mm 3 mps 744 mmHg 56%
    21:00 +3°C° 0 mm 3 mps 744 mmHg 55%
    22:00 +3°C° 0 mm 4 mps 743 mmHg 54%
    23:00 +3°C° 0 mm 4 mps 743 mmHg 54%
    Show more